TIANMU-1 16

Last updated on Wed Sep 23 2026 00:03:10 GMT+0000 (Coordinated Universal Time)

1 58701U 24004B 26265.58436963 .00003772 00000+0 14289-3 0 9991 2 58701 97.4619 91.0022 0005973 20.1522 339.9952 15.27519388150644
UTC large
Height (km)
Speed (km/s)
/
Latitude / Longitude
Inclination (degrees)
Orbital Period (minutes)
Azimuth
Elevation
Range (km)
Doppler Factor

Next 0 passes for location: London (51.5072 / 0.1276)

No passes found over London.
TIANMU-1 16